AirNav   Phillips 66 Aviation Fuel
 
 543 users online  

57XS Mission MTN Airport
Moran, Texas, USA

GOING TO MORAN?


FAA INFORMATION EFFECTIVE 08 NOVEMBER 2018

Location

FAA Identifier: 57XS
Lat/Long: 32-29-31.2800N / 099-08-46.2400W
32-29.521333N / 099-08.770667W
32.4920222 / -99.1461778
(estimated)
Elevation: 1443 ft. / 440 m (estimated)
From city: 3 miles S of MORAN, TX
Time zone: UTC -6 (UTC -5 during Daylight Saving Time)
Zip code: 76464

Airport Operations

Airport use: Private use. Permission required prior to landing
Activation date: 04/2013
Control tower: no
ARTCC: FORT WORTH CENTER
FSS: FORT WORTH FLIGHT SERVICE STATION
Attendance: UNATNDD
Wind indicator: yes
Segmented circle: no

Airport Communications

WX AWOS-3PT at GZN (10 nm SE): 118.0
WX AWOS-3PT at ETN (18 nm E): 118.45 (254-631-0493)
WX AWOS-3 at BKD (19 nm NE): 120.175 (254-559-5525)

Nearby radio navigation aids

VOR radial/distance  VOR name  Freq  Var
ABIr079/36.3ABILENE VORTAC113.7010E
BWDr337/37.2BROWNWOOD VOR/DME108.6008E
TQAr056/37.3TUSCOLA VOR/DME111.6010E

Airport Services

Runway Information

Runway 18/36

Dimensions: 1850 x 30 ft. / 564 x 9 m
Surface: asphalt
RUNWAY 18  RUNWAY 36
Traffic pattern: leftleft

Airport Ownership and Management from official FAA records

Ownership: Privately-owned
Owner: MILES MOORE
9433 FM 880 N
MORAN, TX 76464
Phone 325-945-2420
Manager: MILES MOORE
9433 FM 880 N
MORAN, TX 76464
Phone 325-945-2420

Airport Operational Statistics

Aircraft based on the field: 1
Single engine airplanes: 1
    

Instrument Procedures

There are no published instrument procedures at 57XS.

Some nearby airports with instrument procedures:

KGZN - Gregory M Simmons Memorial Airport (10 nm SE)
T23 - Albany Municipal Airport (15 nm NW)
KETN - Eastland Municipal Airport (18 nm E)
KBKD - Stephens County Airport (19 nm NE)
KABI - Abilene Regional Airport (28 nm W)
 
Loc | Ops | Rwys | IFR | FBO | Links
Com | Nav | Svcs | Stats | Notes


 
Aerial photo
No photo
 
Airport distance calculator
Flying to Mission MTN Airport? Find the distance to fly.

From to 57XS

Sunrise and sunset
Times for 15-Nov-2018
 Local
(UTC-6)
 Zulu
(UTC)
Morning civil twilight06:4112:41
Sunrise07:0713:07
Sunset17:3523:35
Evening civil twilight18:0100:01

Current date and time
Zulu (UTC)  15-Nov-2018 12:06:41
Local (UTC-6)  15-Nov-2018 06:06:41
 
METAR
KGZN 
10nm SE 
151140Z AUTO 22008KT 10SM CLR 02/M04 A3023 RMK AO2
KETN 
18nm E 
151155Z AUTO 00000KT 10SM CLR M05/M06 A3024 RMK AO2 T10531061 11036 21053
KBKD 
19nm NE 
151155Z AUTO 17005KT 10SM CLR 01/M04 A3023 RMK AO2 T00101037 10021 20000
TAF
KABI 
28nm W 
151120Z 1512/1612 21011KT P6SM SKC
NOTAMs
Click for the latest NOTAMs
NOTAMs are issued by the DoD/FAA and will open in a separate window not controlled by AirNav.

 

 
 

Would you like to see your business listed on this page?

 If your business provides an interesting product or service to pilots, flight crews, aircraft, or users of the Mission MTN Airport, you should consider listing it here.  To start the listing process, click on the button below
 
Add a business
 

Other Pages about Mission MTN Airport

Update a link
 
Copyright © AirNav, LLC. All rights reserved. Privacy Policy  Contact